Monroe, MI

9:34 AM EDT on August 16, 2017 (GMT -0400)
Custer

Weather History for KTTF - July, 2013

Change the Weather History Date:

Friday, July 5, 2013

  Actual Average Record
Temperature  
Mean Temperature 74 °F -  
Max Temperature 80 °F 82 °F 104 °F (1990)
Min Temperature 69 °F 61 °F 48 °F (1972)
Cooling Degree Days 10    
Growing Degree Days 24 (Base 50)    
Moisture  
Dew Point 69 °F    
Average Humidity 86    
Maximum Humidity 100    
Minimum Humidity 61    
Precipitation  
Precipitation 0.00 in - - ()
Sea Level Pressure  
Sea Level Pressure 30.09 in    
Wind  
Wind Speed 2 mph (South)    
Max Wind Speed 8 mph    
Max Gust Speed -    
Visibility 7 miles    
Events Rain    
Averages and records for this station are not official NWS values.
T = Trace of Precipitation, MM = Missing Value Source: NWS Daily Summary

Daily Weather History Graph

Daily Weather History Graph

Search for Another Location

Airport or City:

Trip Planner

Search our weather history database for the weather conditions in past years. The results will help you decide how hot, cold, wet, or windy it might be!

Date:

Astronomy

Jul. 05, 2013 Rise Set
Actual Time 6:04 AM EDT 9:11 PM EDT
Civil Twilight 5:30 AM EDT 9:45 PM EDT
Nautical Twilight 4:46 AM EDT 10:29 PM EDT
Astronomical Twilight 3:55 AM EDT 11:21 PM EDT
Moon 4:04 AM EDT (7/5) 7:05 PM EDT (7/5)
Length of Visible Light 16h 15m
Length of Day
15h 07m
Waning Crescent, 6% of the Moon is Illuminated
Jul 5
Waning Crescent
Jul 8
New
Jul 15
First Quarter
Jul 22
Full
Jul 29
Last Quarter

Hourly Weather History & Observations

Time (EDT) Temp. Heat Index Dew Point Humidity Pressure Visibility Wind Dir Wind Speed Gust Speed Precip Events Conditions
12:13 AM 71.6 °F - 69.8 °F 94% 30.11 in 4.0 mi Calm Calm - N/A   Overcast
12:33 AM 71.6 °F - 69.8 °F 94% 30.11 in 4.0 mi Calm Calm - N/A   Overcast
12:53 AM 71.6 °F - 69.8 °F 94% 30.10 in 4.0 mi South 3.5 mph - N/A   Overcast
1:14 AM 71.6 °F - 69.8 °F 94% 30.10 in 4.0 mi Calm Calm - N/A   Overcast
1:34 AM 71.6 °F - 69.8 °F 94% 30.09 in 3.0 mi Calm Calm - N/A   Overcast
1:54 AM 71.6 °F - 69.8 °F 94% 30.09 in 3.0 mi Calm Calm - N/A   Overcast
2:14 AM 71.6 °F - 69.8 °F 94% 30.08 in 3.0 mi Calm Calm - N/A   Overcast
2:34 AM 71.6 °F - 69.8 °F 94% 30.09 in 3.0 mi Calm Calm - N/A   Overcast
2:54 AM 71.6 °F - 69.8 °F 94% 30.08 in 2.0 mi Calm Calm - N/A   Overcast
3:14 AM 69.8 °F - 69.8 °F 100% 30.08 in 1.5 mi Calm Calm - N/A   Overcast
3:34 AM 69.8 °F - 69.8 °F 100% 30.07 in 1.2 mi Calm Calm - N/A Rain Rain
3:54 AM 69.8 °F - 69.8 °F 100% 30.08 in 1.2 mi Calm Calm - N/A   Drizzle
4:14 AM 69.8 °F - 69.8 °F 100% 30.07 in 1.2 mi Calm Calm - N/A Rain Rain
4:35 AM 71.6 °F - 69.8 °F 94% 30.07 in 2.0 mi Calm Calm - N/A   Drizzle
4:55 AM 71.6 °F - 69.8 °F 94% 30.07 in 3.0 mi Calm Calm - N/A Rain Heavy Rain
5:15 AM 71.6 °F - 69.8 °F 94% 30.07 in 2.5 mi Calm Calm - N/A   Drizzle
5:35 AM 71.6 °F - 69.8 °F 94% 30.07 in 5.0 mi South 3.5 mph - N/A   Drizzle
5:55 AM 71.6 °F - 69.8 °F 94% 30.07 in 5.0 mi South 3.5 mph - N/A   Drizzle
6:15 AM 69.8 °F - 69.8 °F 100% 30.08 in 10.0 mi South 3.5 mph - N/A   Overcast
6:35 AM 69.8 °F - 69.8 °F 100% 30.08 in 5.0 mi South 3.5 mph - N/A   Heavy Drizzle
6:55 AM 69.8 °F - 69.8 °F 100% 30.08 in 5.0 mi SW 4.6 mph - N/A Rain Rain
7:15 AM 69.8 °F - 69.8 °F 100% 30.08 in 5.0 mi SSW 3.5 mph - N/A Rain Rain
7:36 AM 69.8 °F - 69.8 °F 100% 30.08 in 4.0 mi Calm Calm - N/A Rain Rain
7:56 AM 69.8 °F - 69.8 °F 100% 30.08 in 4.0 mi Calm Calm - N/A Rain Rain
8:16 AM 69.8 °F - 69.8 °F 100% 30.08 in 4.0 mi Calm Calm - N/A Rain Rain
8:36 AM 71.6 °F - 69.8 °F 94% 30.08 in 4.0 mi Calm Calm - N/A Rain Light Rain
8:56 AM 71.6 °F - 69.8 °F 94% 30.09 in 5.0 mi West 3.5 mph - N/A   Light Drizzle
9:16 AM 71.6 °F - 69.8 °F 94% 30.10 in 5.0 mi West 5.8 mph - N/A   Overcast
9:36 AM 71.6 °F - 69.8 °F 94% 30.11 in 5.0 mi WSW 5.8 mph - N/A   Overcast
9:51 AM 71.6 °F - 69.8 °F 94% 30.11 in 5.0 mi WSW 6.9 mph - N/A   Overcast
10:11 AM 71.6 °F - 69.8 °F 94% 30.11 in 7.0 mi West 3.5 mph - N/A   Overcast
10:31 AM 73.4 °F - 69.8 °F 88% 30.11 in 7.0 mi Calm Calm - N/A   Overcast
10:52 AM 73.4 °F - 68.0 °F 83% 30.11 in 7.0 mi Calm Calm - N/A   Overcast
11:12 AM 73.4 °F - 68.0 °F 83% 30.12 in 10.0 mi Calm Calm - N/A   Mostly Cloudy
11:32 AM 73.4 °F - 68.0 °F 83% 30.12 in 10.0 mi Calm Calm - N/A   Overcast
11:52 AM 73.4 °F - 68.0 °F 83% 30.12 in 10.0 mi Calm Calm - N/A   Overcast
12:12 PM 75.2 °F - 68.0 °F 78% 30.13 in 10.0 mi Calm Calm - N/A   Overcast
12:32 PM 75.2 °F - 69.8 °F 83% 30.12 in 10.0 mi Calm Calm - N/A   Overcast
12:52 PM 75.2 °F - 69.8 °F 83% 30.12 in 10.0 mi SE 3.5 mph - N/A   Overcast
1:12 PM 77.0 °F - 69.8 °F 78% 30.12 in 10.0 mi Calm Calm - N/A   Mostly Cloudy
1:33 PM 77.0 °F - 69.8 °F 78% 30.11 in 10.0 mi South 3.5 mph - N/A   Overcast
1:53 PM 78.8 °F - 69.8 °F 74% 30.11 in 10.0 mi Calm Calm - N/A   Mostly Cloudy
2:13 PM 80.6 °F 82.7 °F 66.2 °F 61% 30.10 in 10.0 mi Calm Calm - N/A   Scattered Clouds
2:33 PM 80.6 °F 83.9 °F 69.8 °F 70% 30.10 in 10.0 mi Calm Calm - N/A   Scattered Clouds
2:53 PM 80.6 °F 82.7 °F 66.2 °F 61% 30.10 in 10.0 mi Calm Calm - N/A   Mostly Cloudy
3:13 PM 78.8 °F - 69.8 °F 74% 30.10 in 10.0 mi SE 4.6 mph - N/A   Mostly Cloudy
3:33 PM 78.8 °F - 66.2 °F 65% 30.10 in 10.0 mi ESE 4.6 mph - N/A   Mostly Cloudy
3:53 PM 78.8 °F - 66.2 °F 65% 30.10 in 10.0 mi SSE 6.9 mph - N/A   Mostly Cloudy
4:13 PM 78.8 °F - 68.0 °F 69% 30.09 in 10.0 mi SE 5.8 mph - N/A   Scattered Clouds
4:34 PM 80.6 °F 83.2 °F 68.0 °F 65% 30.09 in 10.0 mi SSE 5.8 mph - N/A   Scattered Clouds
4:54 PM 80.6 °F 82.7 °F 66.2 °F 61% 30.07 in 10.0 mi SE 5.8 mph - N/A   Clear
5:14 PM 78.8 °F - 66.2 °F 65% 30.07 in 10.0 mi South 8.1 mph - N/A   Clear
5:34 PM 78.8 °F - 66.2 °F 65% 30.08 in 10.0 mi South 6.9 mph - N/A   Clear
5:54 PM 78.8 °F - 66.2 °F 65% 30.08 in 10.0 mi SE 5.8 mph - N/A   Clear
6:14 PM 78.8 °F - 66.2 °F 65% 30.08 in 10.0 mi SE 4.6 mph - N/A   Clear
6:34 PM 78.8 °F - 68.0 °F 69% 30.07 in 10.0 mi South 4.6 mph - N/A   Clear
6:54 PM 78.8 °F - 66.2 °F 65% 30.06 in 10.0 mi SE 3.5 mph - N/A   Clear
7:15 PM 78.8 °F - 66.2 °F 65% 30.07 in 10.0 mi SE 3.5 mph - N/A   Clear
7:35 PM 78.8 °F - 68.0 °F 69% 30.07 in 10.0 mi SSE 5.8 mph - N/A   Clear
7:55 PM 77.0 °F - 68.0 °F 74% 30.07 in 10.0 mi SSE 3.5 mph - N/A   Clear
8:15 PM 75.2 °F - 69.8 °F 83% 30.07 in 10.0 mi SE 4.6 mph - N/A   Clear
8:35 PM 75.2 °F - 69.8 °F 83% 30.07 in 10.0 mi SE 3.5 mph - N/A   Clear
8:55 PM 75.2 °F - 69.8 °F 83% 30.07 in 10.0 mi SE 3.5 mph - N/A   Clear
9:15 PM 73.4 °F - 69.8 °F 88% 30.08 in 10.0 mi Calm Calm - N/A   Clear
9:35 PM 71.6 °F - 69.8 °F 94% 30.08 in 10.0 mi Calm Calm - N/A   Clear
9:55 PM 71.6 °F - 69.8 °F 94% 30.09 in 10.0 mi Calm Calm - N/A   Clear
10:16 PM 71.6 °F - 69.8 °F 94% 30.09 in 10.0 mi Calm Calm - N/A   Clear
10:36 PM 71.6 °F - 69.8 °F 94% 30.09 in 10.0 mi Calm Calm - N/A   Clear
10:56 PM 71.6 °F - 69.8 °F 94% 30.09 in 10.0 mi Calm Calm - N/A   Clear
11:16 PM 71.6 °F - 69.8 °F 94% 30.09 in 10.0 mi Calm Calm - N/A   Clear
11:36 PM 71.6 °F - 69.8 °F 94% 30.10 in 10.0 mi Calm Calm - N/A   Clear
11:56 PM 71.6 °F - 69.8 °F 94% 30.10 in 7.0 mi Calm Calm - N/A   Clear